Location: Unspecified
(49.9820°N, 20.4363°E)
Time: 09:44:42
(UTC+02:00)

ISS - Pass Details

Date: 18 July 2018
Orbit: 402 x 408 km, 51.6° (Epoch: 23 July)

Event Time Altitude Azimuth Distance (km) Brightness Sun altitude
Rises 03:59:16 0° 288° (WNW) 2,335 -0.2 -7.0°
Reaches altitude 10° 04:01:23 10° 283° (WNW) 1,473 -1.3 -6.7°
Maximum altitude 04:04:36 51° 206° (SSW) 522 -3.6 -6.3°
Drops below altitude 10° 04:07:48 10° 130° (SE) 1,468 -0.9 -6.0°
Sets 04:09:55 0° 125° (SE) 2,327 0.2 -5.7°
